KG7KID-6 Weather Reports


time (UTC)temp
C
wind
direction
speed
KPH
gust
KPH
rain 1hr
cm
rain 24hr
cm
rain mn
cm
humidity
%
barometer
mb
20211017164408 16 0 0.0 4.8 0.00 0.00 0.00 43 936.0
20211017164318 16 0 0.0 4.8 0.00 0.00 0.00 43 936.0
20211017163919 16 0 0.0 3.2 0.00 0.00 0.00 44 936.1
20211017163821 16 0 0.0 3.2 0.00 0.00 0.00 44 936.1
20211017163819 16 0 0.0 3.2 0.00 0.00 0.00 44 936.1
20211017163318 15 0 0.0 3.2 0.00 0.00 0.00 45 936.1
20211017162819 15 0 0.0 0.0 0.00 0.00 0.00 45 936.2
20211017162423 15 0 0.0 0.0 0.00 0.00 0.00 46 936.2
20211017162318 15 0 0.0 0.0 0.00 0.00 0.00 46 936.2
20211017161819 14 0 0.0 0.0 0.00 0.00 0.00 46 936.3
20211017161318 14 0 0.0 0.0 0.00 0.00 0.00 48 936.4
20211017160239 13 0 0.0 0.0 0.00 0.00 0.00 49 936.5
20211017155742 13 0 0.0 0.0 0.00 0.00 0.00 49 936.6
20211017155738 13 0 0.0 0.0 0.00 0.00 0.00 49 936.6
20211017155404 13 0 0.0 0.0 0.00 0.00 0.00 50 936.6
20211017155300 13 0 0.0 0.0 0.00 0.00 0.00 51 936.6
20211017155240 13 0 0.0 0.0 0.00 0.00 0.00 50 936.6
20211017155237 13 0 0.0 0.0 0.00 0.00 0.00 50 936.6
20211017154827 13 0 0.0 0.0 0.00 0.00 0.00 51 936.6
20211017154738 13 0 0.0 0.0 0.00 0.00 0.00 51 936.6
20211017153821 13 0 0.0 0.0 0.00 0.00 0.00 50 936.7
20211017153737 13 0 0.0 0.0 0.00 0.00 0.00 50 936.7
20211017153338 12 0 0.0 3.2 0.00 0.00 0.00 54 936.7
20211017153240 12 0 0.0 3.2 0.00 0.00 0.00 54 936.7
20211017153238 12 0 0.0 3.2 0.00 0.00 0.00 54 936.7
20211017152853 12 0 0.0 4.8 0.00 0.00 0.00 54 936.8
20211017152739 12 0 0.0 4.8 0.00 0.00 0.00 54 936.8
20211017152241 12 66 1.6 4.8 0.00 0.00 0.00 53 936.7
20211017152238 12 66 1.6 4.8 0.00 0.00 0.00 53 936.7
20211017151909 12 0 0.0 3.2 0.00 0.00 0.00 54 936.8
20211017151830 12 0 0.0 3.2 0.00 0.00 0.00 54 936.8
20211017151738 12 0 0.0 3.2 0.00 0.00 0.00 54 936.8
20211017150359 10 0 0.0 3.2 0.00 0.00 0.00 58 936.7
20211017150241 10 0 0.0 3.2 0.00 0.00 0.00 58 936.7
20211017150239 10 0 0.0 3.2 0.00 0.00 0.00 58 936.7
20211017145739 9 0 0.0 4.8 0.00 0.00 0.00 61 936.7
20211017145345 8 0 0.0 4.8 0.00 0.00 0.00 63 936.7
20211017145242 8 0 0.0 4.8 0.00 0.00 0.00 63 936.7
20211017145238 8 0 0.0 4.8 0.00 0.00 0.00 63 936.7
20211017144834 8 0 0.0 8.0 0.00 0.00 0.00 63 936.7
20211017144742 8 0 0.0 8.0 0.00 0.00 0.00 63 936.7
20211017144738 8 0 0.0 8.0 0.00 0.00 0.00 63 936.7
20211017144409 8 31 4.8 8.0 0.00 0.00 0.00 63 936.7
20211017144240 8 31 4.8 8.0 0.00 0.00 0.00 63 936.7
20211017143827 8 29 3.2 8.0 0.00 0.00 0.00 65 936.5
20211017143738 8 29 3.2 8.0 0.00 0.00 0.00 65 936.5
20211017143332 8 16 3.2 8.0 0.00 0.00 0.00 67 936.5
20211017143240 8 16 3.2 8.0 0.00 0.00 0.00 67 936.5
20211017143238 8 16 3.2 8.0 0.00 0.00 0.00 67 936.5
20211017142852 7 9 1.6 4.8 0.00 0.00 0.00 69 936.5
20211017142741 7 9 1.6 4.8 0.00 0.00 0.00 69 936.5
20211017142737 7 9 1.6 4.8 0.00 0.00 0.00 69 936.5
20211017142405 7 0 0.0 4.8 0.00 0.00 0.00 69 936.4
20211017142241 7 0 0.0 4.8 0.00 0.00 0.00 69 936.4
20211017142238 7 0 0.0 4.8 0.00 0.00 0.00 69 936.4
20211017140903 7 0 0.0 0.0 0.00 0.00 0.00 68 936.4
20211017140740 7 0 0.0 0.0 0.00 0.00 0.00 68 936.4
20211017140358 7 0 0.0 0.0 0.00 0.00 0.00 68 936.4
20211017140242 7 0 0.0 0.0 0.00 0.00 0.00 68 936.4
20211017140239 7 0 0.0 0.0 0.00 0.00 0.00 68 936.4
20211017135851 6 0 0.0 0.0 0.00 0.00 0.00 69 936.4
20211017135737 6 0 0.0 0.0 0.00 0.00 0.00 69 936.4
20211017135157 6 0 0.0 0.0 0.00 0.00 0.00 69 936.3
20211017134823 6 0 0.0 0.0 0.00 0.00 0.00 69 936.2
20211017134700 6 0 0.0 0.0 0.00 0.00 0.00 69 936.2
20211017134657 6 0 0.0 0.0 0.00 0.00 0.00 69 936.2
20211017134318 6 0 0.0 4.8 0.00 0.00 0.00 69 936.3
20211017134201 6 0 0.0 4.8 0.00 0.00 0.00 69 936.3
20211017134158 6 0 0.0 4.8 0.00 0.00 0.00 69 936.3
20211017133700 6 0 0.0 4.8 0.00 0.00 0.00 69 936.3
20211017133657 6 0 0.0 4.8 0.00 0.00 0.00 69 936.3
20211017132807 6 0 0.0 0.0 0.00 0.00 0.00 68 936.4
20211017132701 6 0 0.0 0.0 0.00 0.00 0.00 68 936.4
20211017132659 6 0 0.0 0.0 0.00 0.00 0.00 68 936.4
20211017132310 6 0 0.0 0.0 0.00 0.00 0.00 68 936.3
20211017132204 6 0 0.0 0.0 0.00 0.00 0.00 68 936.3
20211017132200 6 0 0.0 0.0 0.00 0.00 0.00 68 936.3
20211017132157 6 0 0.0 0.0 0.00 0.00 0.00 68 936.3
20211017131315 6 0 0.0 0.0 0.00 0.00 0.00 68 936.4
20211017131201 6 0 0.0 0.0 0.00 0.00 0.00 68 936.4
20211017131157 6 0 0.0 0.0 0.00 0.00 0.00 68 936.4
20211017130814 6 0 0.0 0.0 0.00 0.00 0.00 68 936.3
20211017130703 6 0 0.0 0.0 0.00 0.00 0.00 68 936.3
20211017130701 6 0 0.0 0.0 0.00 0.00 0.00 68 936.3
20211017130658 6 0 0.0 0.0 0.00 0.00 0.00 68 936.3
20211017130312 6 0 0.0 8.0 0.00 0.00 0.00 69 936.4
20211017130201 6 0 0.0 8.0 0.00 0.00 0.00 69 936.4
20211017130157 6 0 0.0 8.0 0.00 0.00 0.00 69 936.4
20211017125659 6 0 0.0 8.0 0.00 0.00 0.00 69 936.3
20211017125657 6 0 0.0 8.0 0.00 0.00 0.00 69 936.3
20211017125258 6 0 0.0 6.4 0.00 0.00 0.00 69 936.3
20211017125159 6 0 0.0 6.4 0.00 0.00 0.00 69 936.3
20211017125157 6 0 0.0 6.4 0.00 0.00 0.00 69 936.3
20211017124700 6 1 1.6 6.4 0.00 0.00 0.00 68 936.3
20211017124657 6 1 1.6 6.4 0.00 0.00 0.00 68 936.3
20211017124325 6 8 1.6 4.8 0.00 0.00 0.00 68 936.3
20211017124201 6 8 1.6 4.8 0.00 0.00 0.00 68 936.3
20211017124157 6 8 1.6 4.8 0.00 0.00 0.00 68 936.3
20211017123901 6 4 1.6 8.0 0.00 0.00 0.00 67 936.3
20211017123700 6 4 1.6 8.0 0.00 0.00 0.00 67 936.3
20211017123657 6 4 1.6 8.0 0.00 0.00 0.00 67 936.3
20211017123326 7 8 1.6 8.0 0.00 0.00 0.00 67 936.2
20211017123208 7 8 1.6 8.0 0.00 0.00 0.00 67 936.2
20211017123157 7 8 1.6 8.0 0.00 0.00 0.00 67 936.2
20211017122822 7 13 1.6 8.0 0.00 0.00 0.00 65 936.3
20211017122721 7 13 1.6 8.0 0.00 0.00 0.00 65 936.3
20211017122658 7 13 1.6 8.0 0.00 0.00 0.00 65 936.3
20211017122310 7 0 0.0 4.8 0.00 0.00 0.00 65 936.3
20211017122211 7 0 0.0 4.8 0.00 0.00 0.00 65 936.3
20211017122200 7 0 0.0 4.8 0.00 0.00 0.00 65 936.3
20211017122157 7 0 0.0 4.8 0.00 0.00 0.00 65 936.3
20211017121834 7 0 0.0 3.2 0.00 0.00 0.00 65 936.2
20211017121702 7 0 0.0 3.2 0.00 0.00 0.00 65 936.2
20211017121657 7 0 0.0 3.2 0.00 0.00 0.00 65 936.2
20211017121310 7 0 0.0 0.0 0.00 0.00 0.00 66 936.3
20211017121159 7 0 0.0 0.0 0.00 0.00 0.00 66 936.3
20211017121157 7 0 0.0 0.0 0.00 0.00 0.00 66 936.3
20211017120818 7 0 0.0 0.0 0.00 0.00 0.00 66 936.2
20211017120700 7 0 0.0 0.0 0.00 0.00 0.00 66 936.2
20211017120658 7 0 0.0 0.0 0.00 0.00 0.00 66 936.2
20211017120310 7 0 0.0 0.0 0.00 0.00 0.00 66 936.3
20211017120201 7 0 0.0 0.0 0.00 0.00 0.00 66 936.3
20211017120157 7 0 0.0 0.0 0.00 0.00 0.00 66 936.3
20211017115325 7 0 0.0 0.0 0.00 0.00 0.00 65 936.2
20211017115212 7 0 0.0 0.0 0.00 0.00 0.00 65 936.2
20211017115200 7 0 0.0 0.0 0.00 0.00 0.00 65 936.2
20211017115157 7 0 0.0 0.0 0.00 0.00 0.00 65 936.2
20211017114657 7 0 0.0 3.2 0.00 0.00 0.00 64 936.3
20211017114313 7 0 0.0 4.8 0.00 0.00 0.00 63 936.3
20211017114200 7 0 0.0 4.8 0.00 0.00 0.00 63 936.3
20211017114157 7 0 0.0 4.8 0.00 0.00 0.00 63 936.3
20211017113826 7 0 0.0 4.8 0.00 0.00 0.00 63 936.2
20211017113700 7 0 0.0 4.8 0.00 0.00 0.00 63 936.2
20211017113657 7 0 0.0 4.8 0.00 0.00 0.00 63 936.2
20211017113213 7 0 0.0 0.0 0.00 0.00 0.00 63 936.2
20211017113133 7 0 0.0 0.0 0.00 0.00 0.00 63 936.2
20211017113131 7 0 0.0 0.0 0.00 0.00 0.00 63 936.2
20211017112805 7 0 0.0 0.0 0.00 0.00 0.00 62 936.2
20211017112634 7 0 0.0 0.0 0.00 0.00 0.00 62 936.2
20211017112630 7 0 0.0 0.0 0.00 0.00 0.00 62 936.2
20211017111744 7 0 0.0 3.2 0.00 0.00 0.00 61 936.3
20211017111631 7 0 0.0 3.2 0.00 0.00 0.00 61 936.3
20211017111130 7 0 0.0 4.8 0.00 0.00 0.00 61 936.2
20211017110632 7 0 0.0 4.8 0.00 0.00 0.00 61 936.3
20211017110630 7 0 0.0 4.8 0.00 0.00 0.00 61 936.3
20211017110220 8 16 1.6 4.8 0.00 0.00 0.00 61 936.2
20211017110130 8 16 1.6 4.8 0.00 0.00 0.00 61 936.2
20211017105757 7 0 0.0 0.0 0.00 0.00 0.00 61 936.2
20211017105632 7 0 0.0 0.0 0.00 0.00 0.00 61 936.2
20211017105630 7 0 0.0 0.0 0.00 0.00 0.00 61 936.2
20211017105133 7 0 0.0 6.4 0.00 0.00 0.00 61 936.2
20211017105130 7 0 0.0 6.4 0.00 0.00 0.00 61 936.2
20211017104733 7 0 0.0 6.4 0.00 0.00 0.00 62 936.2
20211017104635 7 0 0.0 6.4 0.00 0.00 0.00 62 936.2
20211017104630 7 0 0.0 6.4 0.00 0.00 0.00 62 936.2
20211017104130 7 15 1.6 6.4 0.00 0.00 0.00 62 936.2
20211017103730 7 17 1.6 6.4 0.00 0.00 0.00 62 936.4
20211017103632 7 17 1.6 6.4 0.00 0.00 0.00 62 936.4
20211017103630 7 17 1.6 6.4 0.00 0.00 0.00 62 936.4
20211017103241 7 0 0.0 4.8 0.00 0.00 0.00 62 936.4
20211017103133 7 0 0.0 4.8 0.00 0.00 0.00 62 936.4
20211017103131 7 0 0.0 4.8 0.00 0.00 0.00 62 936.4
20211017102808 7 0 0.0 0.0 0.00 0.00 0.00 62 936.4
20211017102640 7 0 0.0 0.0 0.00 0.00 0.00 62 936.4
20211017102633 7 0 0.0 0.0 0.00 0.00 0.00 62 936.4
20211017102631 7 0 0.0 0.0 0.00 0.00 0.00 62 936.4
20211017102246 7 0 0.0 0.0 0.00 0.00 0.00 62 936.4
20211017102140 7 0 0.0 0.0 0.00 0.00 0.00 62 936.4
20211017102133 7 0 0.0 0.0 0.00 0.00 0.00 62 936.4
20211017102130 7 0 0.0 0.0 0.00 0.00 0.00 62 936.4
20211017101734 8 0 0.0 0.0 0.00 0.00 0.00 61 936.4
20211017101633 8 0 0.0 0.0 0.00 0.00 0.00 61 936.4
20211017101631 8 0 0.0 0.0 0.00 0.00 0.00 61 936.4
20211017101131 8 0 0.0 0.0 0.00 0.00 0.00 61 936.4
20211017100727 8 0 0.0 0.0 0.00 0.00 0.00 61 936.5
20211017100632 8 0 0.0 0.0 0.00 0.00 0.00 61 936.5
20211017100218 8 0 0.0 0.0 0.00 0.00 0.00 61 936.5
20211017100134 8 0 0.0 0.0 0.00 0.00 0.00 61 936.5
20211017100130 8 0 0.0 0.0 0.00 0.00 0.00 61 936.5
20211017095758 8 0 0.0 0.0 0.00 0.00 0.00 60 936.5
20211017095639 8 0 0.0 0.0 0.00 0.00 0.00 60 936.5
20211017095633 8 0 0.0 0.0 0.00 0.00 0.00 60 936.5
20211017095631 8 0 0.0 0.0 0.00 0.00 0.00 60 936.5
20211017095253 8 0 0.0 0.0 0.00 0.00 0.00 59 936.6
20211017095137 8 0 0.0 0.0 0.00 0.00 0.00 59 936.6
20211017095134 8 0 0.0 0.0 0.00 0.00 0.00 59 936.6
20211017095131 8 0 0.0 0.0 0.00 0.00 0.00 59 936.6
20211017094632 8 0 0.0 0.0 0.00 0.00 0.00 59 936.6
20211017094630 8 0 0.0 0.0 0.00 0.00 0.00 59 936.6
20211017094227 8 0 0.0 0.0 0.00 0.00 0.00 59 936.6
20211017094133 8 0 0.0 0.0 0.00 0.00 0.00 59 936.6
20211017094130 8 0 0.0 0.0 0.00 0.00 0.00 59 936.6
20211017093801 8 0 0.0 0.0 0.00 0.00 0.00 60 936.6
20211017093634 8 0 0.0 0.0 0.00 0.00 0.00 60 936.6
20211017093631 8 0 0.0 0.0 0.00 0.00 0.00 60 936.6
20211017093133 8 0 0.0 0.0 0.00 0.00 0.00 60 936.6
20211017093130 8 0 0.0 0.0 0.00 0.00 0.00 60 936.6
20211017092758 8 0 0.0 0.0 0.00 0.00 0.00 59 936.6
20211017092635 8 0 0.0 0.0 0.00 0.00 0.00 59 936.6
20211017092630 8 0 0.0 0.0 0.00 0.00 0.00 59 936.6
20211017092131 8 0 0.0 0.0 0.00 0.00 0.00 58 936.7
20211017091812 8 0 0.0 0.0 0.00 0.00 0.00 57 936.8
20211017091633 8 0 0.0 0.0 0.00 0.00 0.00 57 936.8
20211017091630 8 0 0.0 0.0 0.00 0.00 0.00 57 936.8
20211017091301 8 0 0.0 0.0 0.00 0.00 0.00 58 936.8
20211017091133 8 0 0.0 0.0 0.00 0.00 0.00 58 936.8
20211017091130 8 0 0.0 0.0 0.00 0.00 0.00 58 936.8
20211017090632 8 0 0.0 0.0 0.00 0.00 0.00 57 936.8
20211017090225 8 0 0.0 0.0 0.00 0.00 0.00 57 936.8
20211017090133 8 0 0.0 0.0 0.00 0.00 0.00 57 936.8
20211017090130 8 0 0.0 0.0 0.00 0.00 0.00 57 936.8
20211017085737 9 0 0.0 0.0 0.00 0.00 0.00 56 936.7
20211017085633 9 0 0.0 0.0 0.00 0.00 0.00 56 936.7
20211017085631 9 0 0.0 0.0 0.00 0.00 0.00 56 936.7
20211017084631 9 0 0.0 0.0 0.00 0.00 0.00 55 936.8
20211017083814 9 0 0.0 0.0 0.00 0.00 0.00 55 936.7
20211017083630 9 0 0.0 0.0 0.00 0.00 0.00 55 936.7
20211017083315 9 0 0.0 0.0 0.00 0.00 0.00 55 936.7
20211017083134 9 0 0.0 0.0 0.00 0.00 0.00 55 936.7
20211017083131 9 0 0.0 0.0 0.00 0.00 0.00 55 936.7
20211017082840 10 0 0.0 1.6 0.00 0.00 0.00 54 936.8
20211017082633 10 0 0.0 1.6 0.00 0.00 0.00 54 936.8
20211017082630 10 0 0.0 1.6 0.00 0.00 0.00 54 936.8
20211017082315 10 0 0.0 1.6 0.00 0.00 0.00 54 936.7
20211017082240 10 0 0.0 1.6 0.00 0.00 0.00 54 936.7
20211017082135 10 0 0.0 1.6 0.00 0.00 0.00 54 936.7
20211017082130 10 0 0.0 1.6 0.00 0.00 0.00 54 936.7
20211017081703 10 0 0.0 0.0 0.00 0.00 0.00 53 936.7
20211017081630 10 0 0.0 0.0 0.00 0.00 0.00 53 936.7
20211017081135 10 0 0.0 4.8 0.00 0.00 0.00 53 936.7
20211017081131 10 0 0.0 4.8 0.00 0.00 0.00 53 936.7
20211017080814 10 0 0.0 6.4 0.00 0.00 0.00 53 936.7
20211017080633 10 0 0.0 6.4 0.00 0.00 0.00 53 936.7
20211017080630 10 0 0.0 6.4 0.00 0.00 0.00 53 936.7
20211017080311 10 14 1.6 6.4 0.00 0.00 0.00 51 936.6
20211017080236 10 14 1.6 6.4 0.00 0.00 0.00 51 936.6
20211017080133 10 14 1.6 6.4 0.00 0.00 0.00 51 936.6
20211017080130 10 14 1.6 6.4 0.00 0.00 0.00 51 936.6
20211017075750 10 14 1.6 4.8 0.00 0.00 0.00 51 936.6
20211017075636 10 14 1.6 4.8 0.00 0.00 0.00 51 936.6
20211017075631 10 14 1.6 4.8 0.00 0.00 0.00 51 936.6
20211017075316 11 0 0.0 4.8 0.00 0.00 0.00 49 936.7
20211017075141 11 0 0.0 4.8 0.00 0.00 0.00 49 936.7
20211017075139 11 0 0.0 4.8 0.00 0.00 0.00 49 936.7
20211017075130 11 0 0.0 4.8 0.00 0.00 0.00 49 936.7
20211017074724 11 13 1.6 4.8 0.00 0.00 0.00 48 936.7
20211017074636 11 13 1.6 4.8 0.00 0.00 0.00 48 936.7
20211017074633 11 13 1.6 4.8 0.00 0.00 0.00 48 936.7
20211017074630 11 13 1.6 4.8 0.00 0.00 0.00 48 936.7
20211017074133 11 0 0.0 1.6 0.00 0.00 0.00 48 936.6
20211017074131 11 0 0.0 1.6 0.00 0.00 0.00 48 936.6
20211017073826 11 0 0.0 4.8 0.00 0.00 0.00 47 936.5
20211017073630 11 0 0.0 4.8 0.00 0.00 0.00 47 936.5
20211017073313 11 0 0.0 4.8 0.00 0.00 0.00 47 936.6
20211017073133 11 0 0.0 4.8 0.00 0.00 0.00 47 936.6
20211017073130 11 0 0.0 4.8 0.00 0.00 0.00 47 936.6
20211017072815 11 13 1.6 4.8 0.00 0.00 0.00 47 936.5
20211017072644 11 13 1.6 4.8 0.00 0.00 0.00 47 936.5
20211017072642 11 13 1.6 4.8 0.00 0.00 0.00 47 936.5
20211017072631 11 13 1.6 4.8 0.00 0.00 0.00 47 936.5
20211017072325 11 14 1.6 4.8 0.00 0.00 0.00 47 936.5
20211017072132 11 14 1.6 4.8 0.00 0.00 0.00 47 936.5
20211017072130 11 14 1.6 4.8 0.00 0.00 0.00 47 936.5
20211017071818 11 21 1.6 4.8 0.00 0.00 0.00 48 936.5
20211017071634 11 21 1.6 4.8 0.00 0.00 0.00 48 936.5
20211017071630 11 21 1.6 4.8 0.00 0.00 0.00 48 936.5
20211017071139 11 0 0.0 4.8 0.00 0.00 0.00 48 936.5
20211017071131 11 0 0.0 4.8 0.00 0.00 0.00 48 936.5
20211017070805 11 0 0.0 4.8 0.00 0.00 0.00 48 936.6
20211017070632 11 0 0.0 4.8 0.00 0.00 0.00 48 936.6
20211017070135 11 0 0.0 6.4 0.00 0.00 0.00 47 936.7
20211017070130 11 0 0.0 6.4 0.00 0.00 0.00 47 936.7
20211017065635 11 21 1.6 6.4 0.00 0.00 0.00 47 936.7
20211017065631 11 21 1.6 6.4 0.00 0.00 0.00 47 936.7
20211017065224 11 24 1.6 4.8 0.00 0.00 0.00 47 936.7
20211017065131 11 24 1.6 4.8 0.00 0.00 0.00 47 936.7
20211017064807 11 31 1.6 4.8 0.00 0.00 0.00 46 936.8
20211017064635 11 31 1.6 4.8 0.00 0.00 0.00 46 936.8
20211017064633 11 31 1.6 4.8 0.00 0.00 0.00 46 936.8
20211017064630 11 31 1.6 4.8 0.00 0.00 0.00 46 936.8
20211017064132 12 0 0.0 0.0 0.00 0.00 0.00 44 936.6
20211017064130 12 0 0.0 0.0 0.00 0.00 0.00 44 936.6
20211017063809 12 0 0.0 0.0 0.00 0.00 0.00 42 936.7
20211017063634 12 0 0.0 0.0 0.00 0.00 0.00 42 936.7
20211017063630 12 0 0.0 0.0 0.00 0.00 0.00 42 936.7
20211017063307 12 0 0.0 0.0 0.00 0.00 0.00 41 936.8
20211017063227 12 0 0.0 0.0 0.00 0.00 0.00 41 936.8
20211017063147 12 0 0.0 0.0 0.00 0.00 0.00 41 936.8
20211017063137 12 0 0.0 0.0 0.00 0.00 0.00 41 936.8
20211017063130 12 0 0.0 0.0 0.00 0.00 0.00 41 936.8
20211017062821 12 0 0.0 0.0 0.00 0.00 0.00 41 936.7
20211017062633 12 0 0.0 0.0 0.00 0.00 0.00 41 936.7
20211017062320 12 0 0.0 0.0 0.00 0.00 0.00 40 936.8
20211017062144 12 0 0.0 0.0 0.00 0.00 0.00 40 936.8
20211017062138 12 0 0.0 0.0 0.00 0.00 0.00 40 936.8
20211017062131 12 0 0.0 0.0 0.00 0.00 0.00 40 936.8
20211017061633 12 0 0.0 0.0 0.00 0.00 0.00 41 936.8
20211017061630 12 0 0.0 0.0 0.00 0.00 0.00 41 936.8
20211017061243 12 0 0.0 0.0 0.00 0.00 0.00 41 936.9
20211017061130 12 0 0.0 0.0 0.00 0.00 0.00 41 936.9
20211017060821 13 0 0.0 0.0 0.00 0.00 0.00 40 936.9
20211017060633 13 0 0.0 0.0 0.00 0.00 0.00 40 936.9
20211017060630 13 0 0.0 0.0 0.00 0.00 0.00 40 936.9
20211017060131 13 0 0.0 0.0 0.00 0.00 0.00 39 937.0
20211017055231 13 0 0.0 0.0 0.00 0.00 0.00 37 937.0
20211017055134 13 0 0.0 0.0 0.00 0.00 0.00 37 937.0
20211017055130 13 0 0.0 0.0 0.00 0.00 0.00 37 937.0
20211017054743 13 0 0.0 0.0 0.00 0.00 0.00 37 937.0
20211017054635 13 0 0.0 0.0 0.00 0.00 0.00 37 937.0
20211017054632 13 0 0.0 0.0 0.00 0.00 0.00 37 937.0
20211017054630 13 0 0.0 0.0 0.00 0.00 0.00 37 937.0
20211017054243 13 0 0.0 0.0 0.00 0.00 0.00 37 937.0
20211017054136 13 0 0.0 0.0 0.00 0.00 0.00 37 937.0
20211017054133 13 0 0.0 0.0 0.00 0.00 0.00 37 937.0
20211017054130 13 0 0.0 0.0 0.00 0.00 0.00 37 937.0
20211017053732 14 0 0.0 0.0 0.00 0.00 0.00 37 937.0
20211017053636 14 0 0.0 0.0 0.00 0.00 0.00 37 937.0
20211017053633 14 0 0.0 0.0 0.00 0.00 0.00 37 937.0
20211017053630 14 0 0.0 0.0 0.00 0.00 0.00 37 937.0
20211017053218 14 0 0.0 0.0 0.00 0.00 0.00 36 937.1
20211017053135 14 0 0.0 0.0 0.00 0.00 0.00 36 937.1
20211017053130 14 0 0.0 0.0 0.00 0.00 0.00 36 937.1
20211017052742 14 0 0.0 0.0 0.00 0.00 0.00 36 937.2
20211017052634 14 0 0.0 0.0 0.00 0.00 0.00 36 937.2
20211017052630 14 0 0.0 0.0 0.00 0.00 0.00 36 937.2
20211017052235 14 0 0.0 0.0 0.00 0.00 0.00 36 937.1
20211017052133 14 0 0.0 0.0 0.00 0.00 0.00 36 937.1
20211017052131 14 0 0.0 0.0 0.00 0.00 0.00 36 937.1
20211017051725 14 0 0.0 0.0 0.00 0.00 0.00 36 937.1
20211017051631 14 0 0.0 0.0 0.00 0.00 0.00 36 937.1
20211017051132 14 0 0.0 0.0 0.00 0.00 0.00 36 937.2
20211017051130 14 0 0.0 0.0 0.00 0.00 0.00 36 937.2
20211017050745 15 0 0.0 0.0 0.00 0.00 0.00 36 937.2
20211017050631 15 0 0.0 0.0 0.00 0.00 0.00 36 937.2
20211017050235 15 0 0.0 0.0 0.00 0.00 0.00 36 937.1
20211017050143 15 0 0.0 0.0 0.00 0.00 0.00 36 937.1
20211017050130 15 0 0.0 0.0 0.00 0.00 0.00 36 937.1
20211017045732 15 0 0.0 0.0 0.00 0.00 0.00 37 937.1
20211017045631 15 0 0.0 0.0 0.00 0.00 0.00 37 937.1
20211017045231 15 0 0.0 0.0 0.00 0.00 0.00 37 937.1
20211017045138 15 0 0.0 0.0 0.00 0.00 0.00 37 937.1
20211017045135 15 0 0.0 0.0 0.00 0.00 0.00 37 937.1
20211017045130 15 0 0.0 0.0 0.00 0.00 0.00 37 937.1
20211017044226 15 0 0.0 0.0 0.00 0.00 0.00 37 937.1
20211017044134 15 0 0.0 0.0 0.00 0.00 0.00 37 937.1
20211017044130 15 0 0.0 0.0 0.00 0.00 0.00 37 937.1
20211017043731 15 0 0.0 4.8 0.00 0.00 0.00 37 937.1
20211017043634 15 0 0.0 4.8 0.00 0.00 0.00 37 937.1
20211017043630 15 0 0.0 4.8 0.00 0.00 0.00 37 937.1
20211017043130 15 0 0.0 4.8 0.00 0.00 0.00 37 937.0
20211017042736 15 0 0.0 4.8 0.00 0.00 0.00 37 937.0
20211017042636 15 0 0.0 4.8 0.00 0.00 0.00 37 937.0
20211017042630 15 0 0.0 4.8 0.00 0.00 0.00 37 937.0
20211017042307 15 38 1.6 4.8 0.00 0.00 0.00 35 937.0
20211017042133 15 38 1.6 4.8 0.00 0.00 0.00 35 937.0
20211017042130 15 38 1.6 4.8 0.00 0.00 0.00 35 937.0
20211017041731 16 0 0.0 3.2 0.00 0.00 0.00 33 936.9
20211017041634 16 0 0.0 3.2 0.00 0.00 0.00 33 936.9
20211017041632 16 0 0.0 3.2 0.00 0.00 0.00 33 936.9
20211017041630 16 0 0.0 3.2 0.00 0.00 0.00 33 936.9
20211017041215 16 0 0.0 3.2 0.00 0.00 0.00 33 936.9
20211017041133 16 0 0.0 3.2 0.00 0.00 0.00 33 936.9
20211017041131 16 0 0.0 3.2 0.00 0.00 0.00 33 936.9
20211017040731 16 0 0.0 0.0 0.00 0.00 0.00 32 936.9
20211017040634 16 0 0.0 0.0 0.00 0.00 0.00 32 936.9
20211017040630 16 0 0.0 0.0 0.00 0.00 0.00 32 936.9
20211017040238 16 0 0.0 0.0 0.00 0.00 0.00 32 936.8
20211017040135 16 0 0.0 0.0 0.00 0.00 0.00 32 936.8
20211017040130 16 0 0.0 0.0 0.00 0.00 0.00 32 936.8
20211017035804 16 0 0.0 1.6 0.00 0.00 0.00 32 936.7
20211017035632 16 0 0.0 1.6 0.00 0.00 0.00 32 936.7
20211017035630 16 0 0.0 1.6 0.00 0.00 0.00 32 936.7
20211017035245 16 0 0.0 3.2 0.00 0.00 0.00 32 936.7
20211017035143 16 0 0.0 3.2 0.00 0.00 0.00 32 936.7
20211017035140 16 0 0.0 3.2 0.00 0.00 0.00 32 936.7
20211017035131 16 0 0.0 3.2 0.00 0.00 0.00 32 936.7
20211017034719 16 0 0.0 4.8 0.00 0.00 0.00 32 936.6
20211017034634 16 0 0.0 4.8 0.00 0.00 0.00 32 936.6
20211017034630 16 0 0.0 4.8 0.00 0.00 0.00 32 936.6
20211017034224 16 0 0.0 4.8 0.00 0.00 0.00 33 936.7
20211017034133 16 0 0.0 4.8 0.00 0.00 0.00 33 936.7
20211017034130 16 0 0.0 4.8 0.00 0.00 0.00 33 936.7
20211017033813 16 39 1.6 4.8 0.00 0.00 0.00 32 936.6
20211017033634 16 39 1.6 4.8 0.00 0.00 0.00 32 936.6
20211017033631 16 39 1.6 4.8 0.00 0.00 0.00 32 936.6
20211017033132 16 0 0.0 3.2 0.00 0.00 0.00 32 936.6
20211017033130 16 0 0.0 3.2 0.00 0.00 0.00 32 936.6
20211017032805 17 0 0.0 1.6 0.00 0.00 0.00 31 936.5
20211017032635 17 0 0.0 1.6 0.00 0.00 0.00 31 936.5
20211017032630 17 0 0.0 1.6 0.00 0.00 0.00 31 936.5
20211017032243 17 0 0.0 1.6 0.00 0.00 0.00 30 936.5
20211017032134 17 0 0.0 1.6 0.00 0.00 0.00 30 936.5
20211017032132 17 0 0.0 1.6 0.00 0.00 0.00 30 936.5
20211017031734 18 0 0.0 1.6 0.00 0.00 0.00 29 936.4
20211017031635 18 0 0.0 1.6 0.00 0.00 0.00 29 936.4
20211017031630 18 0 0.0 1.6 0.00 0.00 0.00 29 936.4
20211017031244 18 0 0.0 1.6 0.00 0.00 0.00 27 936.3
20211017031134 18 0 0.0 1.6 0.00 0.00 0.00 27 936.3
20211017031130 18 0 0.0 1.6 0.00 0.00 0.00 27 936.3
20211017030631 18 0 0.0 3.2 0.00 0.00 0.00 28 936.2
20211017030234 18 0 0.0 3.2 0.00 0.00 0.00 27 936.1
20211017030132 18 0 0.0 3.2 0.00 0.00 0.00 27 936.1
20211017030130 18 0 0.0 3.2 0.00 0.00 0.00 27 936.1
20211017025141 18 0 0.0 9.7 0.00 0.00 0.00 27 936.0
20211017025130 18 0 0.0 9.7 0.00 0.00 0.00 27 936.0
20211017024739 18 51 3.2 9.7 0.00 0.00 0.00 28 935.9
20211017024633 18 51 3.2 9.7 0.00 0.00 0.00 28 935.9
20211017024629 18 51 3.2 9.7 0.00 0.00 0.00 28 935.9
20211017024245 19 43 3.2 9.7 0.00 0.00 0.00 28 935.8
20211017024133 19 43 3.2 9.7 0.00 0.00 0.00 28 935.8
20211017024130 19 43 3.2 9.7 0.00 0.00 0.00 28 935.8
20211017023631 19 31 4.8 9.7 0.00 0.00 0.00 28 935.7
20211017023210 19 39 4.8 9.7 0.00 0.00 0.00 28 935.7
20211017023134 19 39 4.8 9.7 0.00 0.00 0.00 28 935.7
20211017023132 19 39 4.8 9.7 0.00 0.00 0.00 28 935.7
20211017023129 19 39 4.8 9.7 0.00 0.00 0.00 28 935.7
20211017022633 19 59 4.8 9.7 0.00 0.00 0.00 28 935.6
20211017022630 19 59 4.8 9.7 0.00 0.00 0.00 28 935.6
20211017022312 19 48 4.8 9.7 0.00 0.00 0.00 28 935.5
20211017022129 19 48 4.8 9.7 0.00 0.00 0.00 28 935.5
20211017021733 19 42 4.8 9.7 0.00 0.00 0.00 29 935.4
20211017021645 19 42 4.8 9.7 0.00 0.00 0.00 29 935.4
20211017021641 19 42 4.8 9.7 0.00 0.00 0.00 29 935.4
20211017021629 19 42 4.8 9.7 0.00 0.00 0.00 29 935.4
20211017021132 19 58 4.8 9.7 0.00 0.00 0.00 30 935.4
20211017021130 19 58 4.8 9.7 0.00 0.00 0.00 30 935.4
20211017020809 19 44 4.8 8.0 0.00 0.00 0.00 31 935.3
20211017020632 19 44 4.8 8.0 0.00 0.00 0.00 31 935.3
20211017020630 19 44 4.8 8.0 0.00 0.00 0.00 31 935.3
20211017020131 19 33 4.8 9.7 0.00 0.00 0.00 32 935.2
20211017020129 19 33 4.8 9.7 0.00 0.00 0.00 32 935.2
20211017015719 18 34 3.2 9.7 0.00 0.00 0.00 33 935.2
20211017015634 18 34 3.2 9.7 0.00 0.00 0.00 33 935.2
20211017015630 18 34 3.2 9.7 0.00 0.00 0.00 33 935.2
20211017015255 18 36 4.8 9.7 0.00 0.00 0.00 33 935.0
20211017015136 18 36 4.8 9.7 0.00 0.00 0.00 33 935.0
20211017015130 18 36 4.8 9.7 0.00 0.00 0.00 33 935.0
20211017014731 19 25 4.8 9.7 0.00 0.00 0.00 32 935.0
20211017014636 19 25 4.8 9.7 0.00 0.00 0.00 32 935.0
20211017014629 19 25 4.8 9.7 0.00 0.00 0.00 32 935.0
20211017013813 19 4 1.6 6.4 0.00 0.00 0.00 31 934.7
20211017013633 19 4 1.6 6.4 0.00 0.00 0.00 31 934.7
20211017013630 19 4 1.6 6.4 0.00 0.00 0.00 31 934.7
20211017013210 20 340 1.6 6.4 0.00 0.00 0.00 30 934.6
20211017013132 20 340 1.6 6.4 0.00 0.00 0.00 30 934.6
20211017013129 20 340 1.6 6.4 0.00 0.00 0.00 30 934.6
20211017012631 20 21 3.2 6.4 0.00 0.00 0.00 30 934.5
20211017012629 20 21 3.2 6.4 0.00 0.00 0.00 30 934.5
20211017012310 21 0 0.0 0.0 0.00 0.00 0.00 28 934.4
20211017012133 21 0 0.0 0.0 0.00 0.00 0.00 28 934.4
20211017012130 21 0 0.0 0.0 0.00 0.00 0.00 28 934.4
20211017011729 21 0 0.0 0.0 0.00 0.00 0.00 27 934.3
20211017011633 21 0 0.0 0.0 0.00 0.00 0.00 27 934.3
20211017011629 21 0 0.0 0.0 0.00 0.00 0.00 27 934.3
20211017011248 21 0 0.0 0.0 0.00 0.00 0.00 25 934.2
20211017011130 21 0 0.0 0.0 0.00 0.00 0.00 25 934.2
20211017010629 22 0 0.0 0.0 0.00 0.00 0.00 25 934.2
20211017010222 22 0 0.0 1.6 0.00 0.00 0.00 24 934.2
20211017010134 22 0 0.0 1.6 0.00 0.00 0.00 24 934.2
20211017010129 22 0 0.0 1.6 0.00 0.00 0.00 24 934.2
20211017005731 23 0 0.0 1.6 0.00 0.00 0.00 23 934.1
20211017005631 23 0 0.0 1.6 0.00 0.00 0.00 23 934.1
20211017005131 24 0 0.0 1.6 0.00 0.00 0.00 22 934.1
20211017005129 24 0 0.0 1.6 0.00 0.00 0.00 22 934.1
20211017004755 24 0 0.0 1.6 0.00 0.00 0.00 21 934.1
20211017004630 24 0 0.0 1.6 0.00 0.00 0.00 21 934.1
20211017004231 25 0 0.0 1.6 0.00 0.00 0.00 21 934.0
20211017004132 25 0 0.0 1.6 0.00 0.00 0.00 21 934.0
20211017004129 25 0 0.0 1.6 0.00 0.00 0.00 21 934.0
20211017003724 25 0 0.0 0.0 0.00 0.00 0.00 20 933.9
20211017003630 25 0 0.0 0.0 0.00 0.00 0.00 20 933.9
20211017002746 27 0 0.0 1.6 0.00 0.00 0.00 19 933.8
20211017002633 27 0 0.0 1.6 0.00 0.00 0.00 19 933.8
20211017002631 27 0 0.0 1.6 0.00 0.00 0.00 19 933.8
20211017001756 27 0 0.0 0.0 0.00 0.00 0.00 17 933.8
20211017001629 27 0 0.0 0.0 0.00 0.00 0.00 17 933.8
20211017001239 27 0 0.0 0.0 0.00 0.00 0.00 17 933.8
20211017001129 27 0 0.0 0.0 0.00 0.00 0.00 17 933.8
20211017000728 27 0 0.0 0.0 0.00 0.00 0.00 18 933.8
20211017000631 27 0 0.0 0.0 0.00 0.00 0.00 18 933.8
20211017000130 27 0 0.0 0.0 0.00 0.00 0.00 18 933.8
20211016235307 27 0 0.0 0.0 0.00 0.00 0.00 18 933.7
20211016235224 27 0 0.0 0.0 0.00 0.00 0.00 18 933.7
20211016235129 27 0 0.0 0.0 0.00 0.00 0.00 18 933.7
20211016234719 27 0 0.0 0.0 0.00 0.00 0.00 16 933.8
20211016234629 27 0 0.0 0.0 0.00 0.00 0.00 16 933.8
20211016234226 27 0 0.0 1.6 0.00 0.00 0.00 17 933.8
20211016234130 27 0 0.0 1.6 0.00 0.00 0.00 17 933.8
20211016233800 27 0 0.0 1.6 0.00 0.00 0.00 17 933.8
20211016233729 27 0 0.0 1.6 0.00 0.00 0.00 17 933.8
20211016233630 27 0 0.0 1.6 0.00 0.00 0.00 17 933.8
20211016233206 27 0 0.0 4.8 0.00 0.00 0.00 17 933.8
20211016233129 27 0 0.0 4.8 0.00 0.00 0.00 17 933.8
20211016232733 27 0 0.0 4.8 0.00 0.00 0.00 17 933.8
20211016232632 27 0 0.0 4.8 0.00 0.00 0.00 17 933.8
20211016232629 27 0 0.0 4.8 0.00 0.00 0.00 17 933.8
20211016231630 27 0 0.0 6.4 0.00 0.00 0.00 17 933.9
20211016231252 27 0 0.0 6.4 0.00 0.00 0.00 17 933.9
20211016231132 27 0 0.0 6.4 0.00 0.00 0.00 17 933.9
20211016231129 27 0 0.0 6.4 0.00 0.00 0.00 17 933.9
20211016230630 27 0 0.0 9.7 0.00 0.00 0.00 17 934.0
20211016230130 27 0 0.0 9.7 0.00 0.00 0.00 16 934.0
20211016225813 27 286 3.2 9.7 0.00 0.00 0.00 17 934.0
20211016225739 27 286 3.2 9.7 0.00 0.00 0.00 17 934.0
20211016225630 27 286 3.2 9.7 0.00 0.00 0.00 17 934.0
20211016225452 27 0 0.0 6.4 0.00 0.00 0.00 17 934.0
20211016225244 27 0 0.0 6.4 0.00 0.00 0.00 17 934.0
20211016225130 27 0 0.0 6.4 0.00 0.00 0.00 17 934.0
20211016224712 27 231 3.2 6.4 0.00 0.00 0.00 17 934.0
20211016224629 27 231 3.2 6.4 0.00 0.00 0.00 17 934.0
20211016224304 27 0 0.0 4.8 0.00 0.00 0.00 17 934.0
20211016224129 27 0 0.0 4.8 0.00 0.00 0.00 17 934.0
20211016223725 27 0 0.0 4.8 0.00 0.00 0.00 17 934.1
20211016223629 27 0 0.0 4.8 0.00 0.00 0.00 17 934.1
20211016223247 27 0 0.0 3.2 0.00 0.00 0.00 17 934.2
20211016223228 27 0 0.0 3.2 0.00 0.00 0.00 17 934.2
20211016223130 27 0 0.0 3.2 0.00 0.00 0.00 17 934.2
20211016221239 27 218 4.8 8.0 0.00 0.00 0.00 17 934.4
20211016220739 26 0 0.0 11.3 0.00 0.00 0.00 17 934.5
20211016220342 26 267 3.2 11.3 0.00 0.00 0.00 17 934.6
20211016220326 26 267 3.2 11.3 0.00 0.00 0.00 17 934.6
20211016220239 26 267 3.2 11.3 0.00 0.00 0.00 17 934.6
20211016215404 26 278 4.8 11.3 0.00 0.00 0.00 17 934.6
20211016215241 26 278 4.8 11.3 0.00 0.00 0.00 17 934.6
20211016215238 26 278 4.8 11.3 0.00 0.00 0.00 17 934.6
20211016214844 26 222 3.2 14.5 0.00 0.00 0.00 17 934.7
20211016214739 26 222 3.2 14.5 0.00 0.00 0.00 17 934.7
20211016214410 26 245 3.2 14.5 0.00 0.00 0.00 17 934.7
20211016214334 26 245 3.2 14.5 0.00 0.00 0.00 17 934.7
20211016214239 26 245 3.2 14.5 0.00 0.00 0.00 17 934.7
20211016213739 26 226 4.8 12.9 0.00 0.00 0.00 17 934.7
20211016213342 26 229 3.2 12.9 0.00 0.00 0.00 18 934.7
20211016213239 26 229 3.2 12.9 0.00 0.00 0.00 18 934.7
20211016212854 26 265 4.8 11.3 0.00 0.00 0.00 17 934.8
20211016212739 26 265 4.8 11.3 0.00 0.00 0.00 17 934.8
20211016212239 26 334 1.6 9.7 0.00 0.00 0.00 18 934.8
20211016211739 26 9 1.6 8.0 0.00 0.00 0.00 17 934.9
20211016211315 26 246 1.6 6.4 0.00 0.00 0.00 17 934.9
20211016211239 26 246 1.6 6.4 0.00 0.00 0.00 17 934.9
20211016210738 26 0 0.0 4.8 0.00 0.00 0.00 18 934.9
20211016210239 26 131 1.6 4.8 0.00 0.00 0.00 18 934.9
20211016205438 25 261 1.6 9.7 0.00 0.00 0.00 17 935.0
20211016205342 25 261 1.6 9.7 0.00 0.00 0.00 17 935.0
20211016204840 25 326 4.8 8.0 0.00 0.00 0.00 17 935.2
20211016204340 25 359 4.8 8.0 0.00 0.00 0.00 17 935.2
20211016203353 25 0 0.0 8.0 0.00 0.00 0.00 18 935.4
20211016202854 25 0 0.0 8.0 0.00 0.00 0.00 17 935.6
20211016202443 25 0 0.0 8.0 0.00 0.00 0.00 18 935.7
20211016202354 25 0 0.0 8.0 0.00 0.00 0.00 18 935.7
20211016201844 25 230 1.6 8.0 0.00 0.00 0.00 18 935.8
20211016201341 25 228 1.6 9.7 0.00 0.00 0.00 18 936.0
20211016195956 25 265 6.4 14.5 0.00 0.00 0.00 18 936.2
20211016195841 25 265 6.4 14.5 0.00 0.00 0.00 18 936.2
20211016195448 25 249 1.6 11.3 0.00 0.00 0.00 18 936.3
20211016195342 25 249 1.6 11.3 0.00 0.00 0.00 18 936.3
20211016194949 24 0 0.0 6.4 0.00 0.00 0.00 18 936.5
20211016194842 24 0 0.0 6.4 0.00 0.00 0.00 18 936.5
20211016194316 24 247 3.2 14.5 0.00 0.00 0.00 17 936.6
20211016194157 24 247 3.2 14.5 0.00 0.00 0.00 17 936.6
20211016193657 24 234 3.2 11.3 0.00 0.00 0.00 18 936.7
20211016193157 23 0 0.0 11.3 0.00 0.00 0.00 18 936.8
20211016192657 23 238 3.2 11.3 0.00 0.00 0.00 18 936.9
20211016192157 23 263 4.8 11.3 0.00 0.00 0.00 18 937.0
20211016191447 23 231 4.8 12.9 0.00 0.00 0.00 19 937.1
20211016190947 23 220 1.6 14.5 0.00 0.00 0.00 18 937.3
20211016190058 23 233 4.8 14.5 0.00 0.00 0.00 18 937.4
20211016185946 23 233 4.8 14.5 0.00 0.00 0.00 18 937.4
20211016185600 23 259 4.8 12.9 0.00 0.00 0.00 19 937.5
20211016185446 23 259 4.8 12.9 0.00 0.00 0.00 19 937.5
20211016184447 23 264 4.8 14.5 0.00 0.00 0.00 19 937.7
20211016183947 22 238 6.4 16.1 0.00 0.00 0.00 19 937.8
20211016182946 22 246 3.2 12.9 0.00 0.00 0.00 19 937.8
20211016180948 21 272 1.6 9.7 0.00 0.00 0.00 20 938.1
20211016180523 21 0 0.0 6.4 0.00 0.00 0.00 19 938.2
20211016180446 21 0 0.0 6.4 0.00 0.00 0.00 19 938.2
20211016175946 21 256 1.6 11.3 0.00 0.00 0.00 20 938.3
20211016175446 21 293 1.6 11.3 0.00 0.00 0.00 18 938.4
20211016174948 20 0 0.0 17.7 0.00 0.00 0.00 20 938.4
20211016174446 20 308 4.8 17.7 0.00 0.00 0.00 21 938.5
20211016173450 20 285 3.2 14.5 2.54 0.00 0.00 20 938.7
20211016173448 20 285 3.2 14.5 0.00 0.00 0.00 20 938.7
20211016173036 20 273 6.4 14.5 0.00 0.00 0.00 19 938.8
20211016172946 20 273 6.4 14.5 0.00 0.00 0.00 19 938.8
20211016172447 20 294 3.2 12.9 0.00 0.00 0.00 21 938.9
20211016171946 19 294 3.2 12.9 0.00 0.00 0.00 21 939.0
20211016170947 18 290 6.4 12.9 0.00 0.00 0.00 21 939.1
20211016170448 18 295 4.8 12.9 0.00 0.00 0.00 20 939.3
20211016165946 18 295 4.8 12.9 0.00 0.00 0.00 21 939.4
20211016165319 18 282 4.8 12.9 0.00 0.00 0.00 21 939.5
20211016164816 18 302 3.2 12.9 0.00 0.00 0.00 22 939.6